Time,TemperatureF,DewpointF,PressureIn,WindDirection,WindDirectionDegrees,WindSpeedMPH,WindSpeedGustMPH,Humidity,HourlyPrecipIn,Conditions,Clouds,dailyrainin,SoftwareType,DateUTC
2013-03-26 00:00:00,33.0,-99.9,-100.00,North,-999,-999.0,-999.0,-999,0.01,,,0.35,,2013-03-26 04:00:00,
2013-03-26 00:53:00,33.0,-99.9,-100.00,North,-999,-999.0,-999.0,-999,0.01,,,0.35,,2013-03-26 04:53:00,
2013-03-26 01:00:00,34.0,-99.9,-100.00,North,-999,-999.0,-999.0,-999,0.00,,,0.34,,2013-03-26 05:00:00,
2013-03-26 01:53:00,34.0,-99.9,-100.00,North,-999,-999.0,-999.0,-999,0.00,,,0.34,,2013-03-26 05:53:00,
2013-03-26 02:00:00,34.0,-99.9,-100.00,North,-999,-999.0,-999.0,-999,0.00,,,0.34,,2013-03-26 06:00:00,
2013-03-26 02:53:00,34.0,-99.9,-100.00,North,-999,-999.0,-999.0,-999,0.00,,,0.34,,2013-03-26 06:53:00,
2013-03-26 03:00:00,34.0,-99.9,-100.00,North,-999,-999.0,-999.0,-999,0.00,,,0.31,,2013-03-26 07:00:00,
2013-03-26 03:53:00,34.0,-99.9,-100.00,North,-999,-999.0,-999.0,-999,0.00,,,0.31,,2013-03-26 07:53:00,
2013-03-26 04:00:00,34.0,-99.9,-100.00,North,-999,-999.0,-999.0,-999,0.01,,,0.28,,2013-03-26 08:00:00,
2013-03-26 04:52:00,34.0,-99.9,-100.00,North,-999,-999.0,-999.0,-999,0.01,,,0.28,,2013-03-26 08:52:00,
2013-03-26 05:00:00,34.0,-99.9,-100.00,North,-999,-999.0,-999.0,-999,0.00,,,0.22,,2013-03-26 09:00:00,
2013-03-26 05:52:00,34.0,-99.9,-100.00,North,-999,-999.0,-999.0,-999,0.00,,,0.22,,2013-03-26 09:52:00,
2013-03-26 06:00:00,34.0,-99.9,-100.00,North,-999,-999.0,-999.0,-999,0.00,,,0.16,,2013-03-26 10:00:00,
2013-03-26 06:53:00,34.0,-99.9,-100.00,North,-999,-999.0,-999.0,-999,0.00,,,0.16,,2013-03-26 10:53:00,
2013-03-26 07:00:00,34.0,-99.9,-100.00,North,-999,-999.0,-999.0,-999,0.00,,,0.14,,2013-03-26 11:00:00,
2013-03-26 07:53:00,34.0,-99.9,-100.00,North,-999,-999.0,-999.0,-999,0.00,,,0.14,,2013-03-26 11:53:00,
2013-03-26 08:00:00,34.0,-99.9,-100.00,North,-999,-999.0,-999.0,-999,0.00,,,0.11,,2013-03-26 12:00:00,
2013-03-26 09:00:00,36.0,-99.9,-100.00,North,-999,-999.0,-999.0,-999,0.00,,,0.09,,2013-03-26 13:00:00,
2013-03-26 09:53:00,36.0,-99.9,-100.00,North,-999,-999.0,-999.0,-999,0.00,,,0.09,,2013-03-26 13:53:00,
2013-03-26 10:00:00,37.0,-99.9,-100.00,North,-999,-999.0,-999.0,-999,0.00,,,0.07,,2013-03-26 14:00:00,
2013-03-26 10:53:00,37.0,-99.9,-100.00,North,-999,-999.0,-999.0,-999,0.00,,,0.07,,2013-03-26 14:53:00,
2013-03-26 11:00:00,40.0,-99.9,-100.00,North,-999,-999.0,-999.0,-999,0.00,,,0.07,,2013-03-26 15:00:00,
2013-03-26 12:00:00,42.0,-99.9,-100.00,North,-999,-999.0,-999.0,-999,0.00,,,0.07,,2013-03-26 16:00:00,
2013-03-26 12:54:00,42.0,-99.9,-100.00,North,-999,-999.0,-999.0,-999,0.00,,,0.07,,2013-03-26 16:54:00,
2013-03-26 13:00:00,42.0,-99.9,-100.00,North,-999,-999.0,-999.0,-999,0.00,,,0.07,,2013-03-26 17:00:00,
2013-03-26 13:53:00,42.0,-99.9,-100.00,North,-999,-999.0,-999.0,-999,0.00,,,0.07,,2013-03-26 17:53:00,
2013-03-26 14:53:00,46.0,-99.9,-100.00,North,-999,-999.0,-999.0,-999,0.00,,,0.07,,2013-03-26 18:53:00,
2013-03-26 15:00:00,47.0,-99.9,-100.00,North,-999,-999.0,-999.0,-999,0.00,,,0.06,,2013-03-26 19:00:00,
2013-03-26 15:54:00,47.0,-99.9,-100.00,North,-999,-999.0,-999.0,-999,0.00,,,0.06,,2013-03-26 19:54:00,
2013-03-26 16:00:00,44.0,-99.9,-100.00,North,-999,-999.0,-999.0,-999,0.00,,,0.06,,2013-03-26 20:00:00,
2013-03-26 17:00:00,45.0,-99.9,-100.00,North,-999,-999.0,-999.0,-999,0.00,,,0.06,,2013-03-26 21:00:00,
2013-03-26 18:00:00,41.0,-99.9,-100.00,North,-999,-999.0,-999.0,-999,0.01,,,0.05,,2013-03-26 22:00:00,
2013-03-26 19:00:00,41.0,-99.9,-100.00,North,-999,-999.0,-999.0,-999,0.00,,,0.05,,2013-03-26 23:00:00,
2013-03-26 19:53:00,41.0,-99.9,-100.00,North,-999,-999.0,-999.0,-999,0.00,,,0.05,,2013-03-26 23:53:00,
2013-03-26 20:00:00,39.0,-99.9,-100.00,North,-999,-999.0,-999.0,-999,0.00,,,0.05,,2013-03-27 00:00:00,
2013-03-26 20:52:00,39.0,-99.9,-100.00,North,-999,-999.0,-999.0,-999,0.00,,,0.05,,2013-03-27 00:52:00,
2013-03-26 21:00:00,37.0,-99.9,-100.00,North,-999,-999.0,-999.0,-999,0.00,,,0.05,,2013-03-27 01:00:00,
2013-03-26 21:53:00,37.0,-99.9,-100.00,North,-999,-999.0,-999.0,-999,0.00,,,0.05,,2013-03-27 01:53:00,
2013-03-26 22:00:00,36.0,-99.9,-100.00,North,-999,-999.0,-999.0,-999,0.00,,,0.04,,2013-03-27 02:00:00,
2013-03-26 22:53:00,36.0,-99.9,-100.00,North,-999,-999.0,-999.0,-999,0.00,,,0.04,,2013-03-27 02:53:00,
2013-03-26 23:00:00,35.0,-99.9,-100.00,North,-999,-999.0,-999.0,-999,0.00,,,0.03,,2013-03-27 03:00:00,
2013-03-26 23:54:00,35.0,-99.9,-100.00,North,-999,-999.0,-999.0,-999,0.00,,,0.03,,2013-03-27 03:54:00,